Regional Weather Roundup
Issued by NWS Charleston, SC

Current Version | Previous Version | Graphics & Text | Print | Product List | Glossary On
Versions: 1 2 3 4 5 6 7 8 9 10 11 12 13 14 15 16 17 18 19 20 21 22 23 24 25 26 27 28 29 30 31 32 33 34 35 36 37 38 39 40 41 42 43 44 45 46 47 48 49 50
000
ASUS42 KCHS 290427
RWRCHS

REGIONAL WEATHER ROUNDUP
NATIONAL WEATHER SERVICE CHARLESTON SC
1200 AM EDT MON MAY 29 2017

NOTE: "FAIR" INDICATES FEW OR NO CLOUDS BELOW 12,000 FEET WITH NO
SIGNIFICANT WEATHER AND/OR OBSTRUCTIONS TO VISIBILITY.

NOT ALL STATIONS ARE QUALITY CONTROLLED. USE DATA WITH CAUTION...
ESPECIALLY DEWPOINT OBSERVATIONS.

SCZ027-030-031-034>040-042>050-290500-
...SOUTHEAST SOUTH CAROLINA...

CITY           SKY/WX    TMP DP  RH WIND       PRES   REMARKS
N CHARLESTON   PTCLDY    76  74  93 SW8       29.90S
WATERFRONT PRK   N/A     79  76  91 SW7       29.88S
JOHNS ISLAND   FAIR      79  75  89 SW7       29.91S
PINOPOLIS        N/A     79  73  83 CALM      29.82S
MONCKS CORNER  FAIR      73  72  94 CALM      29.89S
SUMMERVILLE    FAIR      77  72  83 S3        29.90S
BEAUFORT MCAS  CLEAR     79  73  82 CALM      29.91S
BEAUFORT ARPT  FAIR      79  73  83 S6        29.91S
HILTON HEAD IS CLEAR     79  77  94 S7        29.93S
WALTERBORO     PTCLDY    77  70  78 CALM      29.91S
ALLENDALE      FAIR      77  68  73 CALM      29.90S

...SOUTHERN MIDLANDS AND PEE DEE...

CITY           SKY/WX    TMP DP  RH WIND       PRES   REMARKS
GEORGETOWN     FAIR      73  73 100 CALM      29.90F
KINGSTREE      FAIR     N/A N/A N/A CALM      29.88F
ORANGEBURG     CLEAR     74  71  91 CALM      29.89F
BARNWELL       FAIR      75  70  83 SW5       29.90S
AIKEN          FAIR      72  68  88 W3        29.95S
MANNING        FAIR      73  72  94 S15G26    29.89S
COLUMBIA       CLEAR     74  70  87 SW3       29.88S
SUMTER         PTCLDY    73  70  92 CALM      29.86S
FLORENCE       CLEAR     71  70  96 SW3       29.88S
MYRTLE BEACH   NOT AVBL
N MYRTLE BEACH CLOUDY    73  68  84 W6        29.88F

$$

GAZ063-065-086>088-099>101-113>116-118-119-134>141-150-290500-
...SOUTHEAST GEORGIA...

CITY           SKY/WX    TMP DP  RH WIND       PRES   REMARKS
SAVANNAH ARPT  CLEAR     77  68  73 S3        29.92S
HUNTER AAF     CLEAR     77  72  86 CALM      29.90R
FORT STEWART   CLOUDY    75  68  79 CALM      29.91R
STATESBORO     CLEAR     74  72  93 W5        29.93R
SYLVANIA       CLEAR     78  71  77 W3        29.93R
CLAXTON        FAIR     N/A N/A N/A CALM      29.94R

...CSRA...CENTRAL AND FAR SOUTHEAST GEORGIA...

CITY           SKY/WX    TMP DP  RH WIND       PRES   REMARKS
THOMSON        PTCLDY    70  68  92 CALM      29.98R
AUGUSTA-BUSH   CLEAR     73  70  90 CALM      29.90R
AUGUSTA-DANIEL CLEAR     81  63  54 W6        29.92R
SWAINSBORO     FAIR      77  70  78 W6        29.95R
VIDALIA        MOCLDY    82  68  61 W7        29.96R
EASTMAN        FAIR      80  61  52 W3        29.99S
HAZLEHURST     FAIR      79  71  75 CALM      29.96R
ALMA           CLOUDY    81  70  69 SW6       29.96R
WAYCROSS       CLEAR     82  78  88 W5        29.97R HX  91
JESUP          FAIR      79  64  61 W5        29.95S
BAXLEY         FAIR      81  72  74 W3        29.96R
BRUNSWICK      PTCLDY    81  73  78 SW8       29.95S
SAINT SIMONS   CLEAR     82  71  69 SW10      29.94R

$$

SCZ027-028-034-036>038-045-046-048>050-GAZ119-141-290500-
...LAKE AND SUPPLEMENTAL COASTAL OBSERVATIONS...

STATION/POSITION TIME  TEMP    WIND        PRES    WAVE   SWELL
                       AIR SEA DIR/SP/G            HT/PER HT/PER/DIR
                 (UTC) (F)     (DEG/KT/KT) (MB)    (FT/S) (FT/S/D)
WINYAH BAY       0345   77     150/  5     1012.0F
LAKE MURRAY      0350   76     270/  3/  4 1011.2S
ACE BASIN NERRS  0330   77        CALM     1013.0S
FORT PULASKI     0400   79     220/  6/  7 1013.6
SAPELO ISLAND    0400   81     230/  8     1014.0

$$

ANZ835-935-AMZ111-154-330-350-352-354-370-450-454-472-290500-
...C-MAN AND BUOY OBSERVATIONS...

STATION/POSITION TIME  TEMP    WIND        PRES    WAVE   SWELL
                       AIR SEA DIR/SP/G            HT/PER HT/PER/DIR
                 (UTC) (F)     (DEG/KT/KT) (MB)    (FT/S) (FT/S/D)
BUOY 41004       0410   78 76  210/ 14/ 16 1012.5
BUOY 41008       0350   79 78  180/ 14/ 14 1013.2S   3/ 4   2/100/ 9
FOLLY BEACH CMAN 0400   78     220/ 12/ 14 1013.4S
CAPERS NEARSHORE 0408   80 78  220/ 14/ 19 1012.1S
FRIPP NEARSHORE  0408   79 79  210/ 12/ 16 1012.6R


STATION/POSITION TIME  TEMP    WIND        PRES    WAVE   SWELL
                       AIR SEA DIR/SP/G            HT/PER HT/PER/DIR
                 (UTC) (F)     (DEG/KT/KT) (MB)    (FT/S) (FT/S/D)
5E ST. MARYS GA  0400      79                N/A     2/ 4
FRYING PAN BUOY  0410   76 75  220/ 16/ 19 1011.3
BUOY 41025       0350   77 76  240/ 21/ 25 1009.3S   6/ 6
CAPE LOOKOUT NC  0400   75     210/ 13/ 17 1009.1F
BUOY 41002       0350   77 77  210/ 12/ 16 1014.7R   3/ 7   2/240/ 7
BUOY 41010       0410   80 80  190/ 12/ 14 1015.5
ST AUGUSTINE FL  0400   78 78  240/  5/  8 1015.7R


$$




USA.gov is the U.S. government's official web portal to all federal, state and local government web resources and services.